Location: Leuk
(46.3174°N, 7.6341°E)
Time: 14:04:29
(UTC+00:00)

ALOS - Pass Details

Date: 09 March 2021
Orbit: 683 x 685 km, 97.9° (Epoch: 20 April)

Event Time Altitude Azimuth Distance (km) Brightness Sun altitude
Rises 03:56:13 0° 13° (NNE) 3,062 6.0 -20.9°
Reaches altitude 10° 03:58:28 10° 13° (NNE) 2,141 5.2 -20.6°
Maximum altitude 04:03:10 89° 93° (E) 692 2.2 -19.8°
Enters shadow 04:07:03 15° 194° (SSW) 1,809 4.2 -19.1°
